Regional Weather Roundup
Issued by NWS

Home | Current Version | Previous Version | Text Only | Print | Product List | Glossary On
Versions: 1 2 3 4 5 6 7 8 9 10 11 12 13 14 15 16 17 18 19 20 21 22 23 24 25 26 27 28 29 30 31 32 33 34 35 36 37 38 39 40 41 42 43 44 45 46 47 48 49 50
000
ASUS43 KOAX 161102
RWRNE

WEATHER ROUNDUP FOR NEBRASKA
NATIONAL WEATHER SERVICE OMAHA NE
500 AM CST SAT DEC 16 2017

NOTES: SATELLITE DATA IS BEING USED TO AUGMENT CLOUD COVER ABOVE
       12000 FEET.
       "FAIR" INDICATES FEW OR NO CLOUDS BELOW 12,000 FEET WITH NO
       SIGNIFICANT WEATHER AND/OR OBSTRUCTIONS TO VISIBILITY.


NEZ001>004-019>022-054>056-161200-
NEBRASKA PANHANDLE

CITY           SKY/WX    TMP DP  RH WIND       PRES   REMARKS
SCOTTSBLUFF    CLOUDY    35   8  32 CALM      29.76R
ALLIANCE       CLOUDY    24  13  62 NW3       29.74F
CHADRON        CLOUDY    23  15  71 W5        29.78R WCI  17
GORDON         FAIR      26  19  75 CALM      29.76R
KIMBALL        CLOUDY    40   6  25 NW6       29.78R
SIDNEY         CLOUDY    36   8  31 NW15      29.74F WCI  27
$$

NEZ057>060-069>072-079>082-161200-
SOUTHWEST NEBRASKA

CITY           SKY/WX    TMP DP  RH WIND       PRES   REMARKS
NORTH PLATTE   CLOUDY    30  22  72 CALM      29.74S
IMPERIAL       CLOUDY    28  13  53 W7        29.75F WCI  21
LEXINGTON      PTCLDY    31  19  62 W7        29.74F WCI  24
MCCOOK         PTCLDY    23  12  62 SW7       29.74F WCI  15
OGALLALA       CLOUDY    28  16  62 SW7       29.75R WCI  20
$$

NEZ005>010-023>029-035>040-094-161200-
NORTH CENTRAL NEBRASKA

CITY           SKY/WX    TMP DP  RH WIND       PRES   REMARKS
VALENTINE      CLOUDY    28  22  78 W3        29.75R
AINSWORTH      CLOUDY    30  24  79 W7        29.73R WCI  23
BROKEN BOW     CLOUDY    38  21  50 NW6       29.72S WCI  33
O`NEILL        CLOUDY    31  25  77 SW3       29.73R
ORD            CLOUDY    30  22  72 NW7       29.72S WCI  23
THEDFORD       CLOUDY    31  21  65 NW3       29.74S
$$

NEZ041-046>049-061>064-073>077-083>087-161200-
SOUTH CENTRAL NEBRASKA

CITY           SKY/WX    TMP DP  RH WIND       PRES   REMARKS
GRAND ISLAND   CLOUDY    31  21  66 SW7       29.73S WCI  24
AURORA         CLOUDY    28  19  67 NW8       29.72F WCI  20
HASTINGS       CLEAR     31  16  54 SW6       29.74R WCI  25
HEBRON         CLOUDY    34  21  60 SW5       29.76S WCI  30
HOLDREGE       PTCLDY    29  14  53 W5        29.73S WCI  24
KEARNEY        CLOUDY    33  15  47 NW7       29.73F WCI  27
YORK           CLOUDY    27  19  74 SW7       29.74R WCI  19
$$

NEZ011>018-030>034-042>045-161200-
NORTHEAST NEBRASKA

CITY           SKY/WX    TMP DP  RH WIND       PRES   REMARKS
NORFOLK        CLOUDY    28  21  75 CALM      29.71S
ALBION         PTCLDY    30  24  77 NW7       29.72S WCI  24
BLAIR          CLOUDY    34  22  61 SW7       29.72S WCI  28
COLUMBUS       PTCLDY    31  21  66 W6        29.73S WCI  25
FREMONT        PTCLDY    34  21  58 W7        29.74R WCI  28
TEKAMAH        CLOUDY    29  18  63 S8        29.73R WCI  21
WAYNE          PTCLDY    29  22  74 SW3       29.71S
$$

NEZ050>053-065>068-078-088>093-161200-
SOUTHEAST NEBRASKA

CITY           SKY/WX    TMP DP  RH WIND       PRES   REMARKS
LINCOLN        CLOUDY    33  20  58 S6        29.76S WCI  28
OMAHA EPPLEY   CLOUDY    32  21  64 S6        29.74S WCI  26
BEATRICE       CLOUDY    33  23  68 S6        29.76F WCI  27
FALLS CITY     CLEAR     36  23  59 S6        29.78F WCI  31
NEBRASKA CITY  CLEAR     37  25  60 SW13      29.75S WCI  29
PLATTSMOUTH    CLEAR     36  23  60 S8        29.74F WCI  29
$$

NEZ044-045-051>053-067-161200-
OMAHA AREA

CITY           SKY/WX    TMP DP  RH WIND       PRES   REMARKS
OMAHA EPPLEY   CLOUDY    32  21  64 S6        29.74S WCI  26
BLAIR          CLOUDY    34  22  61 SW7       29.72S WCI  28
FREMONT        PTCLDY    34  21  58 W7        29.74R WCI  28
MILLARD        CLOUDY    35  23  61 CALM      29.75R
OFFUTT AFB     CLEAR     24  18  79 CALM      29.74S
PLATTSMOUTH    CLEAR     36  23  60 S8        29.74F WCI  29
WAHOO          FAIR      37  20  51 SW6       29.73S WCI  32
$$



USA.gov is the U.S. government's official web portal to all federal, state and local government web resources and services.